When you browse on this site, cookies collect data to enhance your experience and personalize the content and advertising you see.
Visit our Privacy Policy to learn more. By continuing to use the site, you agree to this use of cookies and data.

Hourly Weather Sankt Polten

Today, 10 July, Friday

Time Temperature Precipitation Wind Pressure Humidity
00:00 +20°C° 0 mm 1 mps 736 mmHg 86%
01:00 +20°C° 0 mm 1 mps 736 mmHg 85%
02:00 +19°C° 0 mm 1 mps 736 mmHg 85%
03:00 +19°C° 0 mm 1 mps 736 mmHg 85%
04:00 +19°C° 0 mm 1 mps 736 mmHg 85%
05:00 +21°C° 0 mm 1 mps 736 mmHg 81%
06:00 +23°C° 0 mm 1 mps 736 mmHg 77%
07:00 +24°C° 0 mm 1 mps 736 mmHg 73%
08:00 +27°C° 0 mm 1 mps 736 mmHg 65%
09:00 +29°C° 0 mm 1 mps 735 mmHg 57%
10:00 +31°C° 0 mm 1 mps 735 mmHg 50%
11:00 +32°C° 0 mm 1 mps 735 mmHg 45%
12:00 +33°C° 0 mm 1 mps 735 mmHg 41%
13:00 +35°C° 0 mm 2 mps 734 mmHg 37%
14:00 +35°C° 0 mm 2 mps 734 mmHg 38%
15:00 +34°C° 0 mm 1 mps 734 mmHg 39%
16:00 +34°C° 0 mm 1 mps 733 mmHg 40%
17:00 +31°C° 0 mm 1 mps 733 mmHg 49%
18:00 +29°C° 0 mm 1 mps 733 mmHg 58%
19:00 +27°C° 0 mm 1 mps 733 mmHg 66%
20:00 +25°C° 0.3 mm 2 mps 733 mmHg 75%
21:00 +22°C° 0.3 mm 3 mps 734 mmHg 84%
22:00 +21°C° 0.3 mm 3 mps 734 mmHg 92%
23:00 +20°C° 0.3 mm 3 mps 735 mmHg 94%

Tomorrow, 11 July, Saturday

Time Temperature Precipitation Wind Pressure Humidity
00:00 +20°C° 0.3 mm 2 mps 735 mmHg 95%
01:00 +21°C° 0.3 mm 1 mps 735 mmHg 97%
02:00 +20°C° 0.2 mm 1 mps 735 mmHg 97%
03:00 +20°C° 0.2 mm 1 mps 735 mmHg 97%
04:00 +20°C° 0.2 mm 1 mps 735 mmHg 98%
05:00 +19°C° 0.9 mm 1 mps 736 mmHg 97%
06:00 +19°C° 0.9 mm 1 mps 736 mmHg 97%
07:00 +19°C° 0.9 mm 1 mps 736 mmHg 96%
08:00 +18°C° 2.7 mm 2 mps 736 mmHg 97%
09:00 +17°C° 2.7 mm 2 mps 737 mmHg 97%
10:00 +17°C° 2.7 mm 2 mps 737 mmHg 98%
11:00 +16°C° 2.8 mm 2 mps 737 mmHg 97%
12:00 +16°C° 2.8 mm 2 mps 738 mmHg 97%
13:00 +15°C° 2.8 mm 2 mps 738 mmHg 97%
14:00 +16°C° 2.4 mm 2 mps 738 mmHg 96%
15:00 +16°C° 2.4 mm 1 mps 739 mmHg 96%
16:00 +16°C° 2.4 mm 1 mps 739 mmHg 95%
17:00 +16°C° 1.2 mm 1 mps 739 mmHg 96%
18:00 +15°C° 1.2 mm 1 mps 739 mmHg 97%
19:00 +15°C° 1.2 mm 1 mps 740 mmHg 98%
20:00 +15°C° 0.2 mm 1 mps 740 mmHg 98%
21:00 +15°C° 0.2 mm 1 mps 740 mmHg 98%
22:00 +14°C° 0.2 mm 1 mps 740 mmHg 98%
23:00 +14°C° 0.1 mm 1 mps 740 mmHg 97%

Day after tomorrow, 12 July, Sunday

Time Temperature Precipitation Wind Pressure Humidity
00:00 +14°C° 0.1 mm 1 mps 740 mmHg 97%
01:00 +13°C° 0.1 mm 1 mps 740 mmHg 97%
02:00 +13°C° 0 mm 1 mps 740 mmHg 96%
03:00 +13°C° 0 mm 1 mps 740 mmHg 96%
04:00 +12°C° 0 mm 1 mps 740 mmHg 95%
05:00 +13°C° 0 mm 1 mps 740 mmHg 93%
06:00 +14°C° 0 mm 1 mps 741 mmHg 90%
07:00 +15°C° 0 mm 1 mps 741 mmHg 88%
08:00 +18°C° 0 mm 1 mps 741 mmHg 76%
09:00 +18°C° 0 mm 2 mps 741 mmHg 65%
10:00 +20°C° 0 mm 2 mps 741 mmHg 54%
11:00 +20°C° 0.1 mm 2 mps 741 mmHg 53%
12:00 +21°C° 0.1 mm 2 mps 741 mmHg 52%
13:00 +23°C° 0.1 mm 2 mps 741 mmHg 51%
14:00 +21°C° 0.1 mm 2 mps 741 mmHg 52%
15:00 +21°C° 0.1 mm 2 mps 741 mmHg 54%
16:00 +22°C° 0.1 mm 1 mps 741 mmHg 55%
17:00 +21°C° 0.1 mm 1 mps 741 mmHg 64%
18:00 +20°C° 0.1 mm 1 mps 741 mmHg 73%
19:00 +19°C° 0.1 mm 1 mps 741 mmHg 81%
20:00 +16°C° 0 mm 1 mps 741 mmHg 84%
21:00 +15°C° 0 mm 1 mps 741 mmHg 87%
22:00 +13°C° 0 mm 1 mps 742 mmHg 90%
23:00 +13°C° 0 mm 1 mps 742 mmHg 90%

13 July, Monday

Time Temperature Precipitation Wind Pressure Humidity
00:00 +13°C° 0 mm 1 mps 741 mmHg 91%
01:00 +12°C° 0 mm 1 mps 741 mmHg 91%
02:00 +12°C° 0 mm 1 mps 741 mmHg 92%
03:00 +11°C° 0 mm 1 mps 741 mmHg 92%
04:00 +10°C° 0 mm 0 mps 741 mmHg 92%
05:00 +12°C° 0 mm 0 mps 741 mmHg 88%
06:00 +13°C° 0 mm 0 mps 741 mmHg 84%
07:00 +15°C° 0 mm 0 mps 741 mmHg 79%
08:00 +19°C° 0 mm 1 mps 741 mmHg 71%
09:00 +20°C° 0 mm 1 mps 741 mmHg 63%
10:00 +21°C° 0 mm 2 mps 741 mmHg 55%
11:00 +21°C° 0 mm 2 mps 741 mmHg 53%
12:00 +23°C° 0 mm 2 mps 740 mmHg 50%
13:00 +23°C° 0 mm 2 mps 740 mmHg 48%
14:00 +22°C° 0 mm 3 mps 740 mmHg 50%
15:00 +22°C° 0 mm 3 mps 739 mmHg 51%
16:00 +22°C° 0 mm 3 mps 739 mmHg 53%
17:00 +21°C° 0 mm 3 mps 739 mmHg 61%
18:00 +19°C° 0 mm 2 mps 739 mmHg 69%
19:00 +18°C° 0 mm 2 mps 739 mmHg 77%
20:00 +16°C° 0 mm 1 mps 739 mmHg 81%
21:00 +15°C° 0 mm 1 mps 739 mmHg 84%
22:00 +13°C° 0 mm 1 mps 739 mmHg 88%
23:00 +13°C° 0 mm 1 mps 739 mmHg 88%

14 July, Tuesday

Time Temperature Precipitation Wind Pressure Humidity
00:00 +13°C° 0 mm 1 mps 739 mmHg 89%
01:00 +12°C° 0 mm 1 mps 739 mmHg 90%
02:00 +12°C° 0 mm 1 mps 738 mmHg 91%
03:00 +12°C° 0 mm 1 mps 738 mmHg 92%
04:00 +11°C° 0 mm 1 mps 738 mmHg 94%
05:00 +13°C° 0 mm 1 mps 738 mmHg 87%
06:00 +15°C° 0 mm 1 mps 738 mmHg 81%
07:00 +18°C° 0 mm 1 mps 738 mmHg 75%
08:00 +19°C° 0 mm 1 mps 738 mmHg 69%
09:00 +20°C° 0 mm 2 mps 738 mmHg 64%
10:00 +21°C° 0 mm 2 mps 738 mmHg 58%
11:00 +23°C° 0 mm 2 mps 737 mmHg 56%
12:00 +23°C° 0 mm 2 mps 737 mmHg 55%
13:00 +24°C° 0 mm 2 mps 737 mmHg 53%
14:00 +24°C° 0 mm 2 mps 736 mmHg 55%
15:00 +24°C° 0 mm 2 mps 736 mmHg 57%
16:00 +23°C° 0 mm 2 mps 736 mmHg 58%
17:00 +21°C° 0 mm 2 mps 736 mmHg 65%
18:00 +20°C° 0 mm 2 mps 736 mmHg 73%
19:00 +20°C° 0 mm 1 mps 736 mmHg 80%
20:00 +18°C° 0 mm 1 mps 736 mmHg 82%
21:00 +16°C° 0 mm 1 mps 736 mmHg 85%
22:00 +15°C° 0 mm 1 mps 736 mmHg 87%
23:00 +15°C° 0 mm 1 mps 736 mmHg 87%

15 July, Wednesday

Time Temperature Precipitation Wind Pressure Humidity
00:00 +14°C° 0 mm 1 mps 736 mmHg 87%
01:00 +14°C° 0 mm 1 mps 736 mmHg 87%
02:00 +14°C° 0 mm 1 mps 736 mmHg 88%
03:00 +13°C° 0 mm 1 mps 736 mmHg 90%
04:00 +13°C° 0 mm 1 mps 736 mmHg 91%
05:00 +15°C° 0 mm 1 mps 736 mmHg 87%
06:00 +16°C° 0 mm 1 mps 736 mmHg 83%
07:00 +18°C° 0 mm 1 mps 736 mmHg 80%
08:00 +20°C° 0 mm 1 mps 736 mmHg 75%
09:00 +20°C° 0 mm 2 mps 736 mmHg 69%
10:00 +21°C° 0 mm 2 mps 736 mmHg 64%
11:00 +23°C° 0 mm 2 mps 736 mmHg 59%
12:00 +24°C° 0 mm 2 mps 736 mmHg 54%
13:00 +26°C° 0 mm 2 mps 736 mmHg 49%
14:00 +25°C° 0.1 mm 2 mps 736 mmHg 51%
15:00 +25°C° 0.1 mm 1 mps 735 mmHg 53%
16:00 +25°C° 0.1 mm 1 mps 735 mmHg 54%
17:00 +24°C° 0.1 mm 1 mps 735 mmHg 63%
18:00 +22°C° 0.1 mm 1 mps 735 mmHg 71%
19:00 +21°C° 0.1 mm 1 mps 735 mmHg 80%
20:00 +20°C° 0.2 mm 1 mps 735 mmHg 82%
21:00 +19°C° 0.2 mm 1 mps 736 mmHg 84%
22:00 +18°C° 0.2 mm 2 mps 736 mmHg 87%
23:00 +18°C° 0 mm 2 mps 736 mmHg 87%
Show more